This is the latest recevied weather packets stored in our database for station/object N2QDK-2. If no packets are shown the sender has not sent any weather packets the latest 10 day(s).
| Time | Temp. | Humidity | Pressure | Rain* | Wind** | Luminosity | Snow |
|---|---|---|---|---|---|---|---|
| 1777638318 | 6.67° C | 73% | 1013.6 hPa | 0 mm | - | - | - |
| 1777637717 | 6.67° C | 75% | 1013.7 hPa | 0 mm | - | - | - |
| 1777637118 | 6.11° C | 78% | 1013.6 hPa | 0 mm | - | - | - |
| 1777636517 | 5.56° C | 78% | 1013.8 hPa | 0 mm | - | - | - |
| 1777635917 | 5° C | 85% | 1013.7 hPa | 0 mm | - | - | - |
| 1777635317 | 4.44° C | 88% | 1013.5 hPa | 0 mm | - | - | - |
| 1777634717 | 3.89° C | 93% | 1013.3 hPa | 0 mm | - | - | - |
| 1777634118 | 3.33° C | 92% | 1013.5 hPa | 0 mm | - | - | - |
| 1777633518 | 2.78° C | 92% | 1013.2 hPa | 0 mm | - | - | - |
| 1777632917 | 2.22° C | 92% | 1013.2 hPa | 0 mm | - | - | - |
| 1777632317 | 2.22° C | 92% | 1013.3 hPa | 0 mm | - | - | - |
| 1777631717 | 2.22° C | 91% | 1013.2 hPa | 0 mm | - | - | - |
| 1777631118 | 2.22° C | 91% | 1013.2 hPa | 0 mm | - | - | - |
| 1777630517 | 2.22° C | 91% | 1013.2 hPa | 0 mm | - | - | - |
| 1777629917 | 2.78° C | 91% | 1013.3 hPa | 0 mm | - | - | - |
| 1777629317 | 2.78° C | 91% | 1013.2 hPa | 0 mm | - | - | - |
| 1777628717 | 2.22° C | 91% | 1013.2 hPa | 0 mm | - | - | - |
| 1777628117 | 2.78° C | 91% | 1013 hPa | 0 mm | - | - | - |
| 1777627517 | 2.78° C | 91% | 1013 hPa | 0 mm | - | - | - |
| 1777626917 | 2.78° C | 91% | 1013 hPa | 0 mm | - | - | - |
| 1777626317 | 2.22° C | 91% | 1013.1 hPa | 0 mm | - | - | - |
| 1777625717 | 2.22° C | 90% | 1013.1 hPa | 0 mm | - | - | - |
| 1777625117 | 2.78° C | 90% | 1013 hPa | 0 mm | - | - | - |
| 1777624517 | 2.78° C | 89% | 1013.1 hPa | 0 mm | - | - | - |
| 1777623917 | 2.78° C | 89% | 1013 hPa | 0 mm | - | - | - |
* Rain latest hour (hover to see other rain measurements)
** Current wind speed in m/s (hover to see current wind gust speed)